Regional Weather Roundup
Issued by NWS

Home | Current Version | Previous Version | Text Only | Print | Product List | Glossary Off
Versions: 1 2 3 4 5 6 7 8 9 10 11 12 13 14 15 16 17 18 19 20 21 22 23 24 25 26 27 28 29 30 31 32 33 34 35 36 37 38 39 40 41 42 43 44 45 46 47 48 49 50

552
ASUS43 KMKX 200111
RWRWI

WISCONSIN REGIONAL WEATHER ROUNDUP
NATIONAL WEATHER SERVICE MILWAUKEE/SULLIVAN WI
700 PM CST SUN FEB 19 2017

NOTE: "FAIR" INDICATES FEW OR NO CLOUDS BELOW 12,000 FEET WITH NO
SIGNIFICANT WEATHER AND/OR OBSTRUCTIONS TO VISIBILITY.

WIZ001-002-006>008-014>016-023>028-200200-
NORTHWEST WISCONSIN

CITY           SKY/WX    TMP DP  RH WIND       PRES   REMARKS
SUPERIOR ARPT  MOCLDY    35  33  93 NE12G20   29.98F WCI  26
ASHLAND        MOCLDY    34  31  88 N8        30.01S WCI  27
HAYWARD        CLOUDY    42  28  57 CALM      29.96R
SIREN          CLOUDY    51  32  47 SE10      29.91F
CUMBERLAND     PTCLDY    48  30  49 SE8       29.94F
RICE LAKE      PTCLDY    49  31  50 CALM      29.97R
CHETEK         PTCLDY    49  32  51 E5        29.96S
LADYSMITH      PTCLDY    46  32  57 E6        30.00S
EAU CLAIRE     CLOUDY    53  32  44 SE6       29.96R
MENOMONIE      CLOUDY    47  33  60 E3        29.95R
NEW RICHMOND   CLOUDY    48  35  59 SE8       29.91S
OSCEOLA        PTCLDY    50  36  59 SE10      29.93R
$$

WIZ003>005-009-010-017-018-200200-
NORTH CENTRAL WISCONSIN

CITY           SKY/WX    TMP DP  RH WIND       PRES   REMARKS
MANITOWISH WTR MOCLDY    35  31  87 CALM      30.01R
ARBOR VITAE    CLOUDY    42  31  66 CALM      30.02R
WOODRUFF       CLOUDY    42  31  66 CALM      30.02R
RHINELANDER    CLOUDY    51  27  39 SE6       30.03R
EAGLE RIVER    CLOUDY    35  24  63 CALM      30.02S
LAND O LAKES   PTCLDY    39  26  57 SE6       30.05R
PHILLIPS       CLOUDY    45  27  50 CALM      29.99R
TOMAHAWK       CLEAR     38  27  62 CALM      30.03R
MEDFORD        CLOUDY    48  30  50 SE7       30.01R
MERRILL        NOT AVBL
$$

WIZ029-030-035-036-043>047-200200-
CENTRAL WISCONSIN

CITY           SKY/WX    TMP DP  RH WIND       PRES   REMARKS
WAUSAU         CLOUDY    46  30  53 E9        30.01S
MOSINEE        CLEAR     48  32  53 E8        30.03R
MARSHFIELD     CLOUDY    48  31  51 E6        30.00R
STEVENS POINT  CLOUDY    44  32  64 E6        30.03S
WAUPACA        CLOUDY    45  34  65 CALM      30.05R
WAUTOMA        PTCLDY    42  34  73 CALM      30.04R
WISC RAPIDS    PTCLDY    51  32  48 SE7       30.03R
CAMP DOUGLAS   CLOUDY    47  34  60 SE7       29.99S
$$

WIZ011>013-019>022-031-037>040-048>050-200200-
NORTHEAST WISCONSIN

CITY           SKY/WX    TMP DP  RH WIND       PRES   REMARKS
ANTIGO         CLEAR     40  30  66 SE7       30.05S
SHAWANO        CLEAR     40  33  78 CALM      30.07R
OCONTO         CLEAR     37  30  77 E5        30.09S WCI  33
STURGEON BAY   PTCLDY    37  32  82 E6        30.11R WCI  32
GREEN BAY      PTCLDY    42  34  73 E7        30.08R
MANITOWOC      CLOUDY    37  32  82 MISG      30.11R
APPLETON       PTCLDY    48  32  53 VRB5      30.05R
CLINTONVILLE   PTCLDY    45  32  61 SE3       30.06R
OSHKOSH        CLOUDY    43  34  70 E5        30.06R
$$

WIZ032>034-041-042-053>061-200200-
SOUTHWEST WISCONSIN

CITY           SKY/WX    TMP DP  RH WIND       PRES   REMARKS
LA CROSSE      PTCLDY    54  38  54 SE6       29.96R
SPARTA         CLOUDY    45  34  66 CALM      30.00R
VIROQUA        PTCLDY    51  38  62 CALM      29.98R
BOSCOBEL       PTCLDY    52  36  54 CALM      29.99S
PRAIRIE DU CHI PTCLDY    55  35  47 SE5       29.97R
PLATTEVILLE    CLOUDY    51  39  64 E9        30.00S
$$

WIZ056-057-062-063-064-067-068-200200-
SOUTH CENTRAL WISCONSIN

CITY           SKY/WX    TMP DP  RH WIND       PRES   REMARKS
REEDSBURG      CLOUDY    52  37  57 CALM      30.00S
BARABOO/DELLS  CLOUDY    49  35  58 SE6       30.02R
LONE ROCK      PTCLDY    48  38  68 E8        30.01R
MINERAL POINT  PTCLDY    54  36  50 E7        30.00S
MADISON        MOCLDY    49  34  56 SE7       30.02S
MIDDLETON      PTCLDY    46  39  77 CALM      30.02S
WATERTOWN      CLOUDY    45  33  62 E6        30.04S
MONROE         CLOUDY    52  37  58 SE9       30.02R
JANESVILLE     CLEAR     50  37  62 SE6       30.03S
$$

WIZ051-052-058>065-066-070>072-200200-
SOUTHEAST WISCONSIN

CITY           SKY/WX    TMP DP  RH WIND       PRES   REMARKS
MILWAUKEE      CLOUDY    41  30  65 CALM      30.08R
WAUKESHA       CLEAR     43  30  61 SE7       30.08R
MILWAUKEE/TIMM CLEAR     43  28  56 E3        30.08S
RACINE         PTCLDY    40  31  70 SE3       30.10R
KENOSHA        CLOUDY    43  31  62 SE5       30.08R
FOND DU LAC    CLOUDY    46  33  60 SE7       30.06R
SHEBOYGAN      CLOUDY    37  29  72 CALM      30.10R
WEST BEND      CLOUDY    39  30  70 E5        30.08S
JUNEAU         CLEAR     47  33  58 E8        30.06R
$$

LSZ147-162-200200-
LAKE SUPERIOR

STATION/POSITION TIME  TEMP    WIND        PRES    WAVE
                       AIR SEA DIR/SP/G            HT/PER
                 (UTC) (F)     (DEG/KT/KT) (MB)    (FT/S)
DEVILS ISLAND    0000   35      70/ 11/ 12 1017.5R
PORT WING        0040   35      30/  8/ 10 1016.3R
SAXON HARBOR     0030   33     190/  2/  3 1015.6S
$$

LMZ867-665-643>646-200200-
LAKE MICHIGAN

STATION/POSITION TIME  TEMP    WIND        PRES    WAVE
                       AIR SEA DIR/SP/G            HT/PER
                 (UTC) (F)     (DEG/KT/KT) (MB)    (FT/S)
CHAMBERS ISLAND  0030   39      90/  5/  6 1019.0R
NORTHPORT PIER   0040   38     150/  3/  6 1020.0R
SISTER BAY       2350   40     140/  6/  8   N/A
KEWAUNEE LAKESHO 0048   38      70/  1/  3 1019.0R
SHEBOYGAN LAKESH 0100   39      CALM  /  1 1019.6R
PORT WASHINGTON  0030   42      80/  1/  2 1019.6R
MILWAUKEE LAKESH 0050   40        CALM       N/A
KENOSHA   LAKESH 0100   38        CALM     1018.6
$$

TC  - TEMPERATURE IN CELSIUS
VSB - VISIBILITY IN STATUTE MILES
WCI - WIND CHILL INDEX
HX  - HEAT INDEX





USA.gov is the U.S. government's official web portal to all federal, state and local government web resources and services.